COSMOS 2407

Last updated on Wed Jun 24 2026 00:03:38 GMT+0000 (Coordinated Universal Time)

1 28380U 04028A 26173.23847051 .00000041 00000+0 26375-4 0 9995 2 28380 82.9607 71.0932 0037968 237.3148 238.0020 13.76335086100578
UTC large
Height (km)
Speed (km/s)
/
Latitude / Longitude
Inclination (degrees)
Orbital Period (minutes)
Azimuth
Elevation
Range (km)
Doppler Factor

Next 0 passes for location: London (51.5072 / 0.1276)

No passes found over London.
COSMOS 2407